User: anonymous   Login
Location: Theydon Bois
(51.6750°N, 0.1050°E)
Time: 18:06:37
(UTC+00:00)
Language:

Terra - Orbit

View from above orbital plane
View from above orbital plane
View from above satellite
View from above satellite

Ground track
Ground track

The orbit data is extracted from the following two-line orbital elements,

1 25994U 99068A   18018.20918694 -.00000001  00000-0  98763-5 0  9998
2 25994  98.2099  95.1921 0000988  73.2345 286.8972 14.57113139961984
Epoch (UTC): 18 January 2018 05:01:13
Eccentricity: 0.0000988
inclination: 98.2099°
perigee height: 702 km
apogee height: 703 km
right ascension of ascending node: 95.1921°
argument of perigee: 73.2345°
revolutions per day: 14.57113139
mean anomaly at epoch: 286.8972°
orbit number at epoch: 96198

The dashed part of the orbit path shows where the satellite is in the earth's shadow,  

DLR